Flag for Austria Weather past 2 weeks in Stockerau, Lower Austria, Austria

Now
63 °F

Sprinkles. Partly sunny.


Feels Like: 63 °F
Forecast: 55 / 74 °F
Wind: 6 mph from Southwest

Location: Tulln Airport

Current Time: May 30, 2015 at 9:27:43 PM

Latest Report: May 30, 2015 at 8:50 PM


Visibility: 12 mi

Pressure: 30.01 "Hg

Humidity: 88%

Dew point: 59 °F

Location of StockerauLocation

Historic Weather in Stockerau — Graph

°F

Stockerau temperature yesterday

Maximum temperature yesterday: 75 °F (at 1:50 PM)
Minimum temperature yesterday: 45 °F (at 5:50 AM)
Average temperature yesterday: 67 °F

Past Weeks' High & Low Weather Summary

 TemperatureHumidityPressure
High77 °F (May 18, 4:50 PM)100% (May 16, 5:50 AM)30.24 "Hg (May 16, 5:50 AM)
Low43 °F (May 18, 5:50 AM)36% (May 30, 3:50 PM)29.71 "Hg (May 19, 4:50 AM)
Average59 °F76%30.00 "Hg
* Reported May 15 7:50 PM — May 30 7:50 PM, Stockerau, Weather by CustomWeather, © 2015

Note: Actual official high and low records may vary slightly from our data, if they occured in-between our weather recording intervals... More about our weather records

Advertising

Stockerau weather history for previous 24 hours

 ConditionsComfort  
Time TempWeatherWind HumidityBarometerVisibility
7:50 PM
Sat, May 30
63 °FPartly sunny.3 mph88%29.98 "Hg19 mi
6:50 PM63 °FThunderstorms. Partly sunny.3 mph88%29.98 "Hg16 mi
5:50 PM70 °FSprinkles. Partly sunny.2 mph60%29.95 "Hg16 mi
4:50 PM72 °FPartly sunny.7 mph53%29.95 "Hg22 mi
3:50 PM77 °FScattered clouds.13 mph36%29.92 "Hg25 mi
2:50 PM77 °FScattered clouds.13 mph42%29.92 "Hg31 mi
1:50 PM73 °FScattered clouds.14 mph50%29.95 "Hg37 mi
12:50 PM72 °FPartly sunny.14 mph57%29.95 "Hg31 mi
11:50 AM73 °FScattered clouds.9 mph53%29.95 "Hg31 mi
10:50 AM72 °FPartly sunny.13 mph57%29.95 "Hg31 mi
9:50 AM68 °FBroken clouds.6 mph64%29.95 "Hg37 mi
8:50 AM68 °FBroken clouds.7 mph64%29.95 "Hg37 mi
7:50 AM63 °FBroken clouds.5 mph73%29.92 "Hg37 mi
6:50 AM59 °FBroken clouds.3 mph82%29.92 "Hg37 mi
5:50 AM55 °FPassing clouds.5 mph88%29.92 "Hg37 mi
9:50 PM
Fri, May 29
68 °FPassing clouds.14 mph53%29.83 "Hg22 mi
Weather by CustomWeather, © 2015

See weather overviewHow to use our weather pages